TimeCST,TemperatureF,Dew PointF,Humidity,Sea Level PressureIn,VisibilityMPH,Wind Direction,Wind SpeedMPH,Gust SpeedMPH,PrecipitationIn,Events,Conditions,WindDirDegrees,DateUTC
12:15 AM,35.6,32.0,87,30.20,10.0,SW,5.8,-,N/A,,Clear,230,2013-01-06 06:15:00
12:35 AM,35.6,32.0,87,30.20,10.0,SW,5.8,-,N/A,,Partly Cloudy,230,2013-01-06 06:35:00
12:55 AM,35.6,32.0,87,30.20,10.0,WSW,8.1,-,N/A,,Clear,240,2013-01-06 06:55:00
1:35 AM,35.6,32.0,87,30.21,10.0,SW,8.1,-,N/A,,Clear,230,2013-01-06 07:35:00
1:55 AM,35.6,32.0,87,30.21,10.0,WSW,6.9,-,N/A,,Clear,240,2013-01-06 07:55:00
2:15 AM,33.8,32.0,93,30.22,10.0,West,5.8,-,N/A,,Clear,260,2013-01-06 08:15:00
2:35 AM,33.8,32.0,93,30.22,10.0,WSW,6.9,-,N/A,,Clear,240,2013-01-06 08:35:00
2:55 AM,33.8,32.0,93,30.22,10.0,West,6.9,-,N/A,,Clear,260,2013-01-06 08:55:00
3:35 AM,33.8,32.0,93,30.22,10.0,West,8.1,-,N/A,,Clear,260,2013-01-06 09:35:00
3:55 AM,33.8,32.0,93,30.22,10.0,West,5.8,-,N/A,,Clear,260,2013-01-06 09:55:00
4:15 AM,33.8,30.2,87,30.22,10.0,WSW,5.8,-,N/A,,Clear,250,2013-01-06 10:15:00
4:35 AM,32.0,30.2,93,30.22,10.0,West,4.6,-,N/A,,Clear,260,2013-01-06 10:35:00
4:55 AM,32.0,28.4,87,30.22,10.0,West,4.6,-,N/A,,Clear,270,2013-01-06 10:55:00
5:15 AM,32.0,28.4,87,30.23,10.0,West,5.8,-,N/A,,Clear,280,2013-01-06 11:15:00
5:35 AM,32.0,28.4,87,30.23,10.0,WNW,5.8,-,N/A,,Clear,290,2013-01-06 11:35:00
6:52 AM,32.0,26.6,80,30.25,10.0,WNW,6.9,-,N/A,,Clear,290,2013-01-06 12:52:00
7:52 AM,32.0,24.8,75,30.29,10.0,NW,9.2,-,N/A,,Clear,310,2013-01-06 13:52:00
8:58 AM,32.0,23.0,69,30.31,10.0,NW,12.7,21.9,N/A,,Clear,310,2013-01-06 14:58:00
9:50 AM,32.0,23.0,69,30.32,10.0,WNW,11.5,18.4,N/A,,Clear,300,2013-01-06 15:50:00
10:52 AM,33.8,23.0,65,30.33,10.0,WNW,13.8,-,N/A,,Clear,300,2013-01-06 16:52:00
11:48 AM,37.4,23.0,56,30.32,10.0,NW,9.2,-,N/A,,Clear,320,2013-01-06 17:48:00
12:46 PM,39.2,24.8,56,30.31,10.0,NW,10.4,-,N/A,,Clear,310,2013-01-06 18:46:00
1:46 PM,42.8,23.0,46,30.30,10.0,NNW,9.2,16.1,N/A,,Clear,330,2013-01-06 19:46:00
2:48 PM,44.6,19.4,37,30.31,10.0,NNW,9.2,-,N/A,,Clear,340,2013-01-06 20:48:00
3:47 PM,42.8,21.2,42,30.32,10.0,North,8.1,-,N/A,,Clear,350,2013-01-06 21:47:00
4:55 PM,37.4,23.0,56,30.33,10.0,NNW,5.8,-,N/A,,Clear,340,2013-01-06 22:55:00
6:50 PM,32.0,21.2,64,30.34,10.0,Calm,Calm,-,N/A,,Clear,0,2013-01-07 00:50:00
7:50 PM,33.8,19.4,56,30.35,10.0,Calm,Calm,-,N/A,,Clear,0,2013-01-07 01:50:00
8:15 PM,32.0,19.4,60,30.35,10.0,Calm,Calm,-,N/A,,Clear,0,2013-01-07 02:15:00
8:35 PM,32.0,19.4,60,30.35,10.0,Calm,Calm,-,N/A,,Clear,0,2013-01-07 02:35:00
8:45 PM,32.0,19.4,60,30.35,10.0,Calm,Calm,-,N/A,,Clear,0,2013-01-07 02:45:00
8:55 PM,30.2,21.2,69,30.35,10.0,Calm,Calm,-,N/A,,Clear,0,2013-01-07 02:55:00
9:15 PM,32.0,19.4,60,30.35,10.0,Calm,Calm,-,N/A,,Clear,0,2013-01-07 03:15:00
9:35 PM,30.2,19.4,64,30.36,10.0,Calm,Calm,-,N/A,,Clear,0,2013-01-07 03:35:00
9:55 PM,28.4,19.4,69,30.36,10.0,Calm,Calm,-,N/A,,Clear,0,2013-01-07 03:55:00
10:15 PM,26.6,19.4,74,30.35,10.0,Calm,Calm,-,N/A,,Clear,0,2013-01-07 04:15:00
10:35 PM,28.4,19.4,69,30.36,10.0,Calm,Calm,-,N/A,,Clear,0,2013-01-07 04:35:00
10:55 PM,26.6,19.4,74,30.36,10.0,Calm,Calm,-,N/A,,Clear,0,2013-01-07 04:55:00
11:15 PM,26.6,19.4,74,30.36,10.0,Calm,Calm,-,N/A,,Clear,0,2013-01-07 05:15:00
11:35 PM,28.4,19.4,69,30.35,10.0,Calm,Calm,-,N/A,,Clear,0,2013-01-07 05:35:00
11:55 PM,26.6,19.4,74,30.35,10.0,Calm,Calm,-,N/A,,Clear,0,2013-01-07 05:55:00